Location: Donzy-le-Pr�
(47.3659°N, 3.1107°E)
Time: 17:02:25
(UTC+00:00)

SAR-Lupe-1 - Pass Details

Date: 03 March 2021
Orbit: 482 x 483 km, 98.2° (Epoch: 30 March)

Event Time Altitude Azimuth Distance (km) Brightness Sun altitude
Rises 18:24:34 0° 19° (NNE) 2,559 7.5 -9.1°
Reaches altitude 10° 18:26:42 10° 25° (NNE) 1,674 6.5 -9.4°
Maximum altitude 18:30:11 47° 100° (E) 651 4.3 -10.0°
Drops below altitude 10° 18:33:38 10° 176° (S) 1,659 6.7 -10.6°
Sets 18:35:44 0° 182° (S) 2,534 7.7 -10.9°
